This demonstration page uses our WeatherBlox Daily Observations layout. Learn more.

Left ArrowRight Arrow

34.74481, -87.66753

Hourly Observations for February 4, 2021

Temp ( °F °C ) Dew Point ( °F °C ) Humidity (%) Winds ( mph kmh ) Pressure ( in mb ) Visibility ( mi km ) Precip ( " mm )
12:53 am 00:53 Clear 32 0 23 -5 69 69 Calm 30.05 1018 10 16 0.00 0.00
1:53 am 01:53 Clear 31 -0.6 22 -5.6 69 69 ESE 5 7 30.03 1017 10 16 0.00 0.00
2:53 am 02:53 Clear 34 1.1 22 -5.6 61 61 E 5 7 30.02 1017 10 16 0.00 0.00
3:53 am 03:53 Clear 34 1.1 22 -5.6 61 61 E 7 11 29.99 1016 10 16 0.00 0.00
4:53 am 04:53 Clear 35 1.7 23 -5 61 61 ESE 7 11 30.00 1016 10 16 0.00 0.00
5:53 am 05:53 Clear 37 2.8 23 -5 57 57 SE 7 11 29.98 1015 10 16 0.00 0.00
6:53 am 06:53 Cloudy 39 3.9 23 -5 53 53 SE 9 15 29.98 1015 10 16 0.00 0.00
7:53 am 07:53 Mostly Sunny 41 5 23 -5 49 49 SE 12 19 29.96 1015 10 16 0.00 0.00
8:53 am 08:53 Mostly Cloudy 44 6.7 24 -4.4 45 45 SE 9 15 29.96 1015 10 16 0.00 0.00
9:53 am 09:53 Partly Cloudy 48 8.9 24 -4.4 39 39 SE 10 17 29.93 1014 10 16 0.00 0.00
10:53 am 10:53 Sunny 52 11.1 26 -3.3 37 37 SSE 15 24 29.91 1013 10 16 0.00 0.00
11:53 am 11:53 Sunny 56 13.3 22 -5.6 27 27 S 15 24 29.86 1011 10 16 0.00 0.00
12:53 pm 12:53 Partly Cloudy 59 15 33 0.6 38 38 S 20 31 29.81 1009 10 16 0.00 0.00
1:53 pm 13:53 Cloudy 58 14.4 37 2.8 46 46 S 20 31 29.76 1008 10 16 0.00 0.00
2:53 pm 14:53 Mostly Cloudy 59 15 40 4.4 49 49 S 16 26 29.72 1006 10 16 0.00 0.00
3:53 pm 15:53 Cloudy 57 13.9 40 4.4 53 53 SSW 24 39 29.71 1006 10 16 0.00 0.00
4:14 pm 16:14 Cloudy 55 12.8 42 5.6 62 62 S 20 31 29.71 1006 10 16 0.00 0.00
4:40 pm 16:40 Cloudy 54 12.2 43 6.1 67 67 S 16 26 29.71 1006 7 11 0.00 0.00
4:53 pm 16:53 Cloudy 54 12.2 43 6.1 67 67 S 17 28 29.71 1006 10 16 0.00 0.00
5:53 pm 17:53 Cloudy with Haze 54 12.2 45 7.2 72 72 S 14 22 29.70 1006 6 10 0.00 0.00
6:53 pm 18:53 Cloudy with Light Rain 55 12.8 48 8.9 77 77 SSW 17 28 29.69 1005 7 11 0.01 0.25
7:00 pm 19:00 Cloudy with Light Rain 55 12.8 48 8.9 77 77 SSW 16 26 29.69 1005 5 8 0.00 0.00
7:34 pm 19:34 Cloudy 55 12.8 48 8.9 77 77 S 15 24 29.68 1005 10 16 0.01 0.25
7:53 pm 19:53 Cloudy 55 12.8 49 9.4 80 80 S 16 26 29.68 1005 10 16 0.01 0.25
8:20 pm 20:20 Cloudy with Heavy Rain 55 12.8 49 9.4 80 80 S 15 24 29.68 1005 2 3 0.12 3.05
8:31 pm 20:31 Cloudy with Rain 56 13.3 49 9.4 77 77 SSW 13 20 29.69 1005 4 6 0.15 3.81
8:40 pm 20:40 Cloudy with Rain 56 13.3 49 9.4 77 77 WNW 12 19 29.72 1006 3 4 0.25 6.35
8:53 pm 20:53 Cloudy with Light Rain 56 13.3 49 9.4 77 77 W 16 26 29.73 1007 5 8 0.32 8.13
9:02 pm 21:02 Cloudy with Rain 56 13.3 50 10 81 81 W 13 20 29.74 1007 5 8 0.01 0.25
9:29 pm 21:29 Cloudy with Light Rain 55 12.8 50 10 83 83 WNW 17 28 29.76 1008 5 8 0.03 0.76
9:38 pm 21:38 Cloudy with Light Rain 55 12.8 49 9.4 80 80 WNW 20 31 29.76 1008 7 11 0.04 1.02
9:53 pm 21:53 Cloudy 54 12.2 47 8.3 77 77 WNW 13 20 29.77 1008 10 16 0.04 1.02
10:30 pm 22:30 Cloudy 53 11.7 45 7.2 74 74 NW 14 22 29.80 1009 10 16 0.00 0.00
10:53 pm 22:53 Mostly Cloudy 51 10.6 42 5.6 71 71 NW 13 20 29.81 1009 10 16 0.00 0.00
11:07 pm 23:07 Partly Cloudy 50 10 41 5 71 71 NW 14 22 29.83 1010 10 16 0.00 0.00
11:53 pm 23:53 Partly Cloudy 47 8.3 38 3.3 71 71 WNW 12 19 29.84 1011 10 16 0.00 0.00

Powered by AerisWeather